www.pogodaiklimat.ru

ПОГОДА в Красной Поляне

  • Прогноз погоды в Красной Поляне
  • Монитор погоды в Красной Поляне
  • Климат города

АРХИВ ПОГОДЫ в Красной Поляне

Время (UTC), дата Ветер
(напр.,м/с)
 
Видим.   Явления Облачность Т
(С)
Тd
(С)
f
(%)
Тe
(С)
Тes
(С)
Комфортность P
(гПа)
Po
(гПа)
Тmin
(С)
Tmax
(С)
R
(мм)
S
(см)
18 9.01 С 1 4000 м дымка 10/10 600 м
[Sc diur, vesp]
+3.1 +1.6 90 +1 +1 1017.1 948.9
21 9.01 штиль 0 4000 м дымка 10/10 600 м
[Sc diur, vesp]
+2.5 +1.3 92 +1 +1 1018.4 950.0
00 10.01 З 1 2000 м слабый ливневой дождь 10/10 600 м
[Cb cap]
+1.8 +1.7 99 -0 -0 1020.3 951.6
03 10.01 штиль 0 2000 м слабый ливневой дождь 10/10 600 м
[Cb cap]
+1.1 +1.0 99 -0 -0 1022.3 953.3 +1.0 3 54
06 10.01 штиль 0 2000 м в посл. час ливневой дождь 10/10 600 м
[Cb calv]
+1.2 +1.2 100 -0 -0 1024.4 955.3 +0.9
09 10.01 4000 м дымка {туман} н/о +3.6 +1.3 85 +2 +4 1024.3 955.8
12 10.01 ЮВ 1 4000 м дымка {туман} 6/4 600 м
[Cu Sc Ac cast]
+5.0 +0.4 72 +4 +5 1023.1 955.0
15 10.01 С 2 4000 м дымка 8/6 600 м
[Sc Ac cast]
+2.8 +0.9 87 -0 -0 1024.2 955.5 +6.7 0.4
18 10.01 С 2 20 км ясно +0.6 -1.3 87 -3 -3 1023.9 954.6
21 10.01 С 1 20 км ясно -1.0 -4.2 79 -3 -3 1024.0 954.3
00 11.01 СВ 1 20 км 4/0
[Ci fib]
-1.5 -5.5 74 -3 -3 1023.9 954.1
03 11.01 СВ 1 20 км 4/0
[Ci]
-2.9 -5.7 81 -5 -5 1023.7 953.6 -3.0 52
06 11.01 В 2 50 км 10/0
[Ac und]
-1.1 -5.9 70 -5 -4 1024.2 954.5 -3.2
09 11.01 штиль 0 50 км 10/0
[Ac und]
+1.8 -3.9 66 +1 +3 1024.2 955.2
12 11.01 С 1 50 км 10/0
[Ac und]
+4.7 -2.6 59 +4 +4 1024.4 956.1
15 11.01 СЗ 2 20 км 10/0
[Ac und]
+5.7 -3.4 52 +4 +4 1026.2 958.0 +6.8
18 11.01 СВ 1 20 км 10/10 1000 м
[Sc]
+3.9 -1.1 70 +3 +3 1028.3 959.5
21 11.01 С 1 20 км 3/0
[Ac As]
+0.7 -1.2 87 -1 -1 1029.3 959.7
00 12.01 С 2 20 км 4/0
[Ci fib]
+0.6 -3.1 76 -3 -3 1028.0 958.4
03 12.01 СВ 2 20 км ясно -0.2 -4.1 75 -4 -4 1025.9 956.3 -1.5 49
06 12.01 В 1 50 км 5/0
[Ci]
-1.2 -4.4 79 -3 -2 1024.7 954.9 -1.9
09 12.01 ЮЗ 1 50 км 4/0
[Ci sp]
+5.2 -5.2 47 +5 +9 1018.4 950.6
12 12.01 ЮВ 1 50 км 8/0
[Ci]
+6.6 -3.4 49 +6 +8 1014.7 947.5
15 12.01 С 1 20 км 4/0
[Ci]
+2.8 -1.9 71 +2 +2 1014.4 946.3 +7.7
18 12.01 С 2 20 км 10/6 1000 м
[Sc diur, vesp Ci sp]
+1.3 -1.9 79 -2 -2 1015.9 947.3
21 12.01 З 2 20 км 10/10 1000 м
[Sc diur, vesp]
+3.7 +0.4 79 +1 +1 1015.5 947.6
00 13.01 З 1 2000 м слабый ливневой снег 10/10 600 м
[Cb calv]
+0.2 -0.2 97 -2 -2 1019.3 950.3
03 13.01 В 1 10 км {ливн. осадки} 10/10 1000 м
[Sc diur, vesp]
+0.6 -0.3 94 -1 -1 1018.4 949.5 +0.1 6 48
06 13.01 В 1 10 км {ливн. осадки} 10/10 600 м
[Sc diur, vesp]
+0.2 -0.1 98 -2 -2 1020.1 951.0 -0.3
09 13.01 штиль 0 2000 м слабый ливневой снег 10/10 600 м
[Cb cap]
+0.8 +0.4 97 -1 -1 1020.5 951.5
12 13.01 штиль 0 2000 м дымка {ливн. осадки} 10/10 600 м
[Sc diur, vesp]
+1.2 -0.9 86 0 0 1020.8 951.9
15 13.01 штиль 0 2000 м дымка {ливн. осадки} 10/10 600 м
[Sc diur, vesp]
+0.2 -0.1 98 -1 -1 1022.5 953.3 +1.6 1
18 13.01 штиль 0 2000 м дымка {ливн. осадки} 10/10 600 м
[Sc diur, vesp]
-0.1 -0.2 99 -2 -2 1023.5 954.1
21 13.01 С 1 2000 м дымка 10/10 600 м
[Sc diur, vesp]
-1.7 -3.0 91 -4 -4 1024.0 954.2
00 14.01 С 2 2000 м дымка 10/10 600 м
[Sc diur, vesp]
-3.3 -5.0 88 -7 -7 1024.0 953.7
03 14.01 С 2 20 км ясно -4.1 -5.8 88 -8 -8 1022.5 952.1 -4.4 48
06 14.01 С 2 50 км 3/0
[Ci sp]
-3.7 -5.7 86 -8 -7 1021.2 951.0
09 14.01 В 2 50 км 4/0
[Cc]
+2.5 -3.8 63 -0 +4 1017.6 949.2
12 14.01 штиль 0 50 км ясно +4.4 -1.4 66 +4 +6 1014.4 946.7
15 14.01 В 1 50 км 4/0
[Cc]
+0.2 -2.0 85 -2 -2 1016.2 947.4 +5.3
18 14.01 В 1 20 км ясно -1.0 -3.4 84 -3 -3 1016.4 947.2
21 14.01 С 1 20 км 6/0
[Cc]
-2.3 -4.2 87 -5 -5 1016.6 947.1
00 15.01 В 1 20 км 8/0
[Cs]
-1.9 -3.6 88 -4 -4 1017.0 947.6
03 15.01 штиль 0 20 км 10/0
[Cs]
-2.1 -3.7 89 -3 -3 1017.2 947.7 -3.1 48
06 15.01 В 1 50 км 3/0
[Ac lent Ci fib]
-1.4 -2.7 91 -4 -3 1018.1 948.7
09 15.01 штиль 0 50 км 4/0
[Cs]
+5.9 -4.0 49 +6 +11 1016.4 948.9
12 15.01 ЮВ 1 50 км 10/3 1500 м
[Sc Cc]
+8.8 -2.2 46 +9 +10 1015.7 948.9
15 15.01 С 1 20 км 3/0
[Ci fib]
+2.4 -2.1 72 +1 +1 1018.5 950.0 +10.4
18 15.01 С 2 19 км 8/0
[Ac As Cs]
+1.1 -3.8 70 -2 -2 1020.4 951.5
21 15.01 штиль 0 20 км 1/0
[Ac cast]
-0.8 -3.6 81 -2 -2 1022.3 952.8
00 16.01 В 1 20 км 1/1 1000 м
[Sc]
-0.5 -4.2 76 -2 -2 1023.2 953.7
03 16.01 СЗ 1 20 км 10/0
[Ac As]
+0.3 -3.3 77 -1 -1 1022.9 953.6 -1.4 48
06 16.01 В 2 2000 м слабый ливневой снег 10/10 600 м
[Cb cap]
+0.7 0.0 95 -3 -3 1025.1 955.8
09 16.01 штиль 0 2000 м дымка {ливн. осадки} 10/10 600 м
[Sc diur, vesp]
+1.6 +1.2 97 0 0 1024.6 955.6
12 16.01 В 1 20 км {ливн. осадки} 10/8 1000 м
[Sc diur, vesp Ac As]
+4.5 +1.9 83 +3 +3 1022.7 954.5
15 16.01 С 1 20 км 5/0
[Ci sp]
+2.2 +0.7 90 0 0 1022.3 953.6 +5.4 1

 

Местоположение метеостанции Красная Поляна (Краснодарский край, Россия): широта 43.68 долгота 40.20 высота над уровнем моря 567 м.

В архиве по умолчанию представлена погода в Красной Поляне за последнюю неделю. Архивные данные за месяц целиком и за предыдущие месяцы, начиная с января 2011 года, Вы можете получить, выбрав интересующий диапазон дат из раскрывающегося списка и нажав кнопку "Ввод!".

Внимание! Время в таблицах - всемирное. Для получения местного времени необходимо прибавить поправку, которая в Красной Поляне равна 3 ч.

Ветер - указаны скорость ветра в м/с - средняя за 10 мин, порывы в срок и между сроками (в фигурных скобках) и направление, откуда дует ветер: С - северный, СВ - северо-восточный, В - восточный, ЮВ - юго-восточный, Ю - южный, ЮЗ - юго-западный, З - западный, СЗ - северо-западный.
Видимость - горизонтальная дальность видимости в метрах или километрах. При видимости от 1 до 10 км при отсутствии осадков обычно наблюдается дымка, при ухудшении видимости до 1 км и менее - туман. В сухую погоду видимость может ухудшаться дымом, пылью или мглою.
Явления - указаны атмосферные явления, наблюдавшиеся в срок или в последний час перед сроком; фигурными скобками обозначены явления, наблюдавшиеся между сроками (за 1-3 часа до срока); квадратными скобками обозначены град или гололедные отложения с указанием их диаметра в мм.
Облачность - указаны через наклонную черту общая и нижняя облачность в баллах и высота нижней границы облаков в метрах; квадратными скобками обозначены формы облаков: Ci - перистые, Cs - перисто-слоистые, Cc - перисто-кучевые, Ac - высококучевые, As - высокослоистые, Sc - слоисто-кучевые, Ns - слоисто-дождевые, Cu - кучевые, Cb - кучево-дождевые. Подробнее классификацию облаков см. в Атласе облаков (PDF).
T - Температура воздуха - температура, измеренная на высоте 2 м над землей.
Td - Температура точки росы - температура, при понижении до которой содержащийся в воздухе водяной пар достигнет насыщения.
f - Относительная влажность воздуха - влажноcть воздуха, измеренная на высоте 2 м над землей.
Te - Эффективная температура - температура, которую ощущает одетый по сезону человек в тени. Характеристика душности погоды. При расчете учитывается влияние влажности воздуха и скорости ветра на теплоощущения человека.
Tes - Эффективная температура на солнце - температура, которую ощущает человек, с поправкой на солнечный нагрев. Характеристика знойности погоды. Зависит от высоты солнца над горизонтом, облачности и скорости ветра. Ночью, в пасмурную погоду, а также при ветре 12 м/с и более поправка равна нулю.
P - Атмосферное давление - приведенное к уровню моря атмосферное давление.
Po - Атмосферное давление - измеренное на уровне метеостанции атмосферное давление.
Tmin - Минимальная температура - минимум температуры воздуха на высоте 2 м над землей.
Tmax - Максимальная температура - максимум температуры воздуха на высоте 2 м над землей.
R - Количество осадков - Количество выпавших осадков, мм. При наведении курсора мыши на число - период времени, за который выпало указанное количество осадков.
S - Снежный покров - Высота снежного покрова, см. При наведении курсора мыши на число - состояние снежного покрова и степень покрытия местности в баллах.